Location: Byszew
(52.1813°N, 19.2693°E)
Time: 12:11:24
(UTC+00:00)

H-2A R/B - Pass Details

Date: 03 March 2021
Orbit: 577 x 655 km, 98.5° (Epoch: 10 April)

Event Time Altitude Azimuth Distance (km) Brightness Sun altitude
Rises 16:52:57 0° 13° (NNE) 2,812 5.3 -4.9°
Reaches altitude 10° 16:55:07 10° 10° (N) 1,905 4.4 -5.2°
Maximum altitude 16:59:12 65° 289° (WNW) 640 2.5 -5.8°
Drops below altitude 10° 17:03:15 10° 208° (SSW) 1,894 5.0 -6.5°
Sets 17:05:24 0° 205° (SSW) 2,795 5.8 -6.8°
